Wind_Speed
20 20 21 21 23 17 14 13 12 11 10 10 9 8 8 8 7 7 6 6 7 6 6 6 5 4 4 4 4 4 3 4 5 5 6 6 6 6 5 5 5 6 6 6 6 5 6 7 8
21 19 21 23 18 13 13 12 11 11 11 10 10 9 8 8 7 7 7 7 7 7 6 6 5 5 5 5 4 4 3 3 4 4 5 5 6 5 6 6 6 6 5 5 5 5 6 7 7
21 21 24 20 12 13 13 13 12 12 11 11 10 9 9 9 8 8 7 7 7 7 7 6 4 5 5 5 5 4 4 3 3 3 4 5 6 6 6 6 6 6 5 5 5 6 7 7 7
19 24 22 14 13 14 14 14 14 13 12 12 11 10 10 9 8 8 8 7 7 7 7 7 5 5 5 5 5 5 4 4 4 4 5 6 6 6 6 6 7 6 6 6 6 7 7 7 7
24 25 15 12 13 14 15 15 14 14 13 13 12 11 10 10 9 8 8 8 7 8 8 8 7 6 5 5 5 5 5 5 5 5 6 6 7 6 5 6 6 6 7 7 7 7 7 7 6
24 19 12 12 13 13 14 14 14 15 15 14 14 13 11 10 10 9 9 8 7 8 8 8 8 7 6 6 5 5 5 5 5 6 6 6 6 6 5 6 6 7 6 6 6 6 6 6 5
19 14 11 11 13 13 14 14 15 15 16 16 16 14 12 12 11 9 9 8 7 7 8 7 6 6 6 6 6 5 5 5 5 5 5 6 6 5 5 5 6 7 6 6 5 5 5 5 5
16 12 11 10 13 13 13 14 14 15 16 17 17 16 14 13 12 11 10 9 8 7 7 7 6 5 5 5 5 5 5 4 5 5 5 5 5 5 5 6 6 6 6 6 5 5 4 5 5
13 11 10 10 12 13 14 15 16 17 17 17 17 17 15 13 13 12 11 10 9 8 7 7 6 6 5 5 5 5 5 4 4 5 5 5 5 5 5 5 5 5 5 6 6 5 5 5 5
9 9 10 10 11 13 15 17 18 18 19 19 19 18 17 15 13 13 12 11 10 9 8 8 7 6 5 4 4 4 5 5 4 4 5 5 5 5 5 5 5 4 4 5 5 5 5 5 5
7 9 9 10 11 13 16 17 18 18 19 20 20 19 17 17 16 15 13 13 11 9 8 8 7 6 5 4 4 4 4 4 4 4 4 4 4 4 4 4 4 4 4 4 4 4 4 4 4
7 10 10 10 12 13 15 16 16 17 18 20 21 20 18 18 17 16 15 13 12 10 9 8 7 7 6 5 4 4 4 4 4 4 3 3 3 3 3 3 3 3 3 4 4 4 4 3 3
6 9 10 11 12 12 12 14 15 18 19 20 21 21 20 20 19 18 17 14 12 11 10 9 8 7 6 5 4 3 3 3 3 3 3 2 2 2 2 2 2 3 3 3 4 4 3 3 3
5 8 9 10 11 13 12 12 14 17 19 20 20 21 21 21 20 19 17 15 13 12 10 9 8 7 6 6 4 3 3 3 2 2 1 2 1 1 1 1 2 2 2 2 2 3 3 3 2
6 7 6 9 10 11 13 13 15 16 18 19 20 20 20 20 20 19 17 15 14 12 11 10 9 8 7 6 6 4 3 3 3 2 1 1 1 1 0 2 2 1 1 1 1 2 2 2 2
4 4 5 7 10 11 12 13 14 14 16 18 19 20 20 20 20 19 19 16 15 13 12 11 11 9 8 7 6 5 4 3 3 2 2 1 1 2 1 1 2 3 2 2 2 2 2 2 2
1 4 5 5 7 10 11 13 14 15 16 17 18 19 19 19 19 19 18 18 16 13 12 11 11 10 9 8 7 6 6 4 3 2 2 2 3 3 3 3 3 3 4 3 3 3 3 3 4
4 4 3 5 6 7 9 12 13 14 15 16 17 18 18 18 19 18 18 17 16 14 12 12 12 11 10 9 8 7 6 5 4 3 3 3 3 4 4 4 4 4 5 5 5 5 5 5 6
7 4 2 4 5 5 6 9 12 13 14 15 16 16 17 17 17 17 17 17 16 15 12 12 12 11 11 10 9 8 6 6 5 4 3 4 4 4 5 5 5 5 5 6 6 7 7 7 7
7 6 4 4 5 5 6 7 8 11 13 14 14 15 16 16 16 16 16 16 15 14 13 12 11 11 10 10 10 9 8 7 6 6 5 5 5 6 6 6 6 5 6 7 7 7 7 8 9
8 8 7 5 6 7 8 10 10 9 10 13 14 14 15 16 15 15 15 15 14 13 13 13 12 11 11 11 11 10 9 8 8 7 7 6 6 7 7 7 6 7 7 8 8 9 9 10 10
9 8 9 8 7 6 9 12 11 10 9 11 13 13 14 15 14 14 14 14 13 13 13 13 12 11 11 11 11 11 10 9 8 9 8 8 8 8 8 8 8 8 9 9 10 10 11 11 11
11 10 9 8 7 7 9 12 13 11 10 10 11 12 12 14 14 13 13 13 13 13 13 13 12 12 11 11 12 11 10 10 10 10 9 8 9 9 9 9 9 10 10 10 11 12 12 13 13
13 11 10 7 8 11 10 10 13 12 10 10 9 9 10 11 12 13 12 12 13 13 13 13 13 13 12 12 13 12 12 11 11 11 11 10 10 10 10 10 11 11 11 11 12 13 13 14 14
13 11 9 9 11 14 12 10 12 14 13 11 11 10 9 10 11 11 12 12 12 13 13 13 13 13 13 13 14 13 13 12 12 12 12 11 12 11 11 11 11 11 12 12 13 14 14 14 15
15 12 12 12 12 13 12 11 13 12 13 12 12 10 9 10 10 11 11 11 12 12 13 13 14 13 14 14 15 14 13 13 12 13 13 13 13 13 12 12 12 12 13 13 14 14 14 15 16
15 15 14 15 15 15 13 14 14 12 11 12 12 10 9 9 9 10 11 12 12 12 12 12 13 13 14 14 15 15 14 14 13 13 13 13 13 13 13 14 14 14 14 14 14 14 14 15 16
19 15 15 17 15 15 14 15 15 12 11 12 12 12 10 10 9 10 11 12 12 13 13 13 13 13 14 15 15 15 15 15 15 15 15 14 14 14 15 14 14 14 13 13 13 14 14 15 16
19 18 18 17 17 14 16 17 18 11 10 11 13 12 12 10 10 10 11 12 12 13 13 13 13 13 14 15 15 16 16 16 16 16 16 16 16 16 16 15 15 15 15 15 15 15 15 16 17
19 19 19 19 17 15 16 19 18 15 14 13 13 13 13 12 12 12 12 13 13 13 13 13 12 13 14 15 15 16 16 17 17 17 17 17 17 17 17 17 16 16 16 16 17 17 17 17 17
Wind_Direction
62 61 58 52 46 35 31 35 34 35 36 35 35 34 37 37 39 40 40 50 58 57 59 62 61 69 86 104 114 115 121 140 154 160 166 163 161 157 150 150 147 145 139 141 140 139 138 139 140
61 60 56 52 43 26 31 33 34 35 37 35 34 35 35 38 43 42 42 47 54 51 54 56 60 71 85 103 109 111 108 123 140 150 159 163 161 156 149 145 145 144 139 135 142 140 141 142 145
65 59 52 44 25 28 31 32 32 30 33 35 35 37 41 40 43 44 43 45 50 49 51 53 58 74 92 103 106 102 95 101 110 130 147 155 158 155 148 141 138 140 139 137 138 139 140 140 146
65 59 49 35 28 32 31 32 33 33 32 34 34 36 41 40 41 45 45 43 47 46 46 44 59 71 82 90 94 90 86 90 101 123 138 143 148 147 143 139 137 135 130 124 126 135 137 140 144
60 58 44 23 28 31 32 35 32 35 36 33 33 36 42 40 38 40 43 43 45 45 42 42 58 65 75 80 79 78 85 88 95 111 122 130 135 135 134 133 138 136 135 135 135 138 134 135 142
61 56 37 25 27 31 31 36 36 37 36 36 35 37 42 39 38 39 39 44 48 49 48 43 49 55 66 79 79 80 80 87 92 105 119 128 128 131 139 140 141 143 141 141 141 139 141 136 139
65 62 50 27 27 34 30 33 37 37 37 39 40 40 41 36 36 42 41 44 47 49 48 43 51 56 62 71 77 80 83 89 89 101 110 117 124 129 136 138 136 140 143 143 144 143 148 143 141
62 54 52 29 23 33 32 32 39 41 39 38 38 39 40 39 39 39 42 46 49 50 48 45 46 57 59 63 72 81 89 95 93 99 108 110 117 121 124 124 130 137 136 136 138 140 144 148 148
50 56 53 32 27 34 34 35 39 42 40 38 37 38 39 39 42 42 43 45 47 46 46 43 46 53 54 62 70 80 88 98 99 99 105 107 112 118 116 115 116 120 126 128 133 133 136 144 145
53 57 50 41 37 37 35 39 39 38 41 38 38 40 38 40 43 43 42 40 40 42 44 43 42 47 48 57 67 84 92 96 100 101 99 104 104 111 114 114 118 121 125 126 132 135 135 146 144
54 61 50 44 43 40 37 40 39 35 36 36 36 37 38 42 41 41 39 36 36 37 39 39 40 43 43 48 64 82 83 90 97 99 95 91 94 96 104 115 122 124 123 124 130 135 138 145 153
50 57 53 44 43 44 41 41 38 35 34 34 35 37 38 37 38 37 34 33 33 33 35 36 35 35 39 44 58 67 66 75 82 85 88 87 92 98 111 114 120 126 124 126 134 136 137 142 152
58 55 47 38 40 41 42 42 36 35 33 33 33 34 34 33 33 34 34 34 32 33 35 32 35 35 37 39 46 55 58 63 64 64 81 86 81 87 105 120 128 135 127 131 137 138 137 139 148
71 57 40 31 31 31 32 37 40 33 30 31 32 33 34 32 31 31 30 32 32 33 35 35 35 33 31 31 33 39 43 45 40 38 84 89 74 60 116 157 152 141 135 135 143 151 153 150 158
59 42 21 15 20 25 20 24 34 29 27 29 30 31 32 32 31 30 28 28 28 32 34 34 33 31 31 32 33 31 27 21 21 22 41 43 14 9 356 201 202 208 209 180 171 182 186 194 205
49 6 343 360 13 13 9 12 27 24 28 26 28 28 29 30 30 30 30 29 29 30 32 33 33 35 33 31 28 22 18 12 6 359 7 3 347 343 325 259 240 249 251 248 239 233 239 239 243
337 298 309 342 16 10 3 3 15 17 20 22 24 25 25 27 28 29 29 28 29 30 31 31 32 33 34 30 27 22 24 22 12 355 345 335 333 324 307 285 273 260 258 259 260 255 258 259 261
264 274 296 344 4 10 357 356 4 10 13 12 16 20 21 23 23 26 26 26 26 28 31 31 31 31 31 28 26 23 22 24 20 360 346 338 336 326 314 292 278 272 263 263 266 264 263 263 265
252 262 298 312 337 356 349 347 353 4 5 3 6 12 16 19 21 22 22 22 24 25 28 27 27 27 28 27 24 22 20 15 6 353 333 326 327 321 319 309 280 272 270 264 265 265 265 267 269
247 265 269 293 311 319 322 327 342 351 354 357 359 4 10 13 16 18 18 19 21 23 22 19 21 23 23 24 23 21 16 10 4 353 332 318 316 316 309 305 293 282 279 277 275 270 267 268 270
243 258 259 260 292 313 315 322 323 343 351 354 355 360 2 8 12 14 15 15 16 19 18 19 21 21 21 21 20 16 13 9 3 353 342 330 321 313 307 298 295 291 288 285 283 283 278 275 273
239 244 254 259 274 292 306 308 322 324 339 349 348 355 358 1 8 11 12 12 14 16 16 19 21 20 20 20 16 12 8 4 355 349 342 331 325 320 310 300 293 290 289 287 285 284 283 282 280
223 232 241 251 262 270 289 298 309 316 328 337 344 352 354 354 1 9 11 12 14 16 18 18 18 17 17 15 12 7 1 356 351 352 346 334 325 319 315 309 302 295 290 286 286 286 286 285 283
219 234 244 241 249 261 265 278 297 305 310 321 324 341 348 351 354 3 8 11 12 15 17 16 15 13 12 10 7 2 356 353 350 347 344 337 328 320 315 310 305 299 293 289 287 287 287 288 286
227 230 244 252 254 256 253 259 275 295 308 313 318 326 334 341 348 356 1 4 4 6 9 10 9 8 7 6 2 359 355 351 349 345 341 338 334 326 318 312 306 301 300 298 293 289 289 289 288
230 227 238 245 257 267 260 248 262 281 291 298 306 313 321 331 341 349 351 354 356 358 -0 2 2 3 2 1 0 359 356 352 349 343 339 337 333 328 321 317 311 304 301 301 297 294 293 293 292
226 231 234 248 261 267 268 262 262 275 287 292 301 309 313 322 331 339 341 345 349 350 351 353 357 358 357 356 356 357 356 353 350 346 342 340 337 333 329 322 317 311 306 303 299 298 296 294 293
226 226 234 238 249 265 272 269 263 267 277 286 293 295 300 310 320 329 336 341 344 345 345 351 353 353 351 350 349 349 349 347 346 344 342 339 338 335 331 326 320 316 313 311 306 301 300 298 296
232 230 232 237 238 254 272 276 276 265 265 275 280 284 291 300 311 319 326 331 335 337 339 342 344 345 346 346 344 343 343 343 341 340 338 337 335 334 332 330 325 318 312 310 308 305 302 300 299
230 233 236 240 240 242 261 277 283 271 267 270 271 275 290 299 304 310 314 319 324 326 329 332 333 335 337 339 339 339 338 339 339 338 335 333 332 331 330 330 326 322 317 312 310 306 303 302 302
Height
5894 5892 5891 5889 5888 5889 5887 5886 5884 5882 5881 5879 5878 5876 5875 5874 5874 5875 5871 5869 5870 5869 5868 5868 5867 5867 5867 5867 5867 5868 5867 5867 5868 5868 5868 5868 5869 5870 5871 5872 5873 5873 5874 5875 5876 5877 5877 5878 5879
5897 5895 5893 5891 5893 5893 5891 5889 5887 5885 5883 5881 5879 5878 5877 5876 5875 5874 5872 5871 5871 5870 5869 5869 5868 5868 5868 5868 5868 5869 5868 5868 5867 5867 5867 5868 5869 5871 5872 5873 5873 5874 5875 5876 5877 5877 5878 5879 5880
5900 5897 5894 5897 5898 5895 5894 5891 5889 5887 5885 5883 5881 5880 5879 5878 5876 5875 5874 5873 5873 5872 5871 5870 5870 5869 5869 5869 5869 5869 5869 5868 5867 5867 5867 5868 5870 5871 5872 5873 5874 5875 5876 5877 5878 5878 5879 5880 5881
5902 5898 5900 5903 5901 5898 5896 5893 5891 5889 5887 5885 5883 5882 5880 5879 5878 5877 5876 5875 5874 5873 5872 5871 5871 5870 5870 5870 5870 5870 5870 5869 5868 5868 5867 5868 5870 5872 5874 5874 5875 5876 5877 5878 5879 5879 5880 5881 5882
5902 5901 5907 5906 5904 5901 5898 5896 5893 5891 5889 5887 5885 5883 5881 5881 5879 5878 5877 5876 5876 5874 5873 5873 5872 5872 5872 5871 5871 5871 5871 5871 5870 5870 5869 5870 5872 5873 5875 5875 5876 5877 5878 5879 5880 5881 5881 5882 5883
5905 5909 5912 5909 5906 5904 5901 5898 5896 5893 5891 5888 5887 5885 5883 5882 5881 5879 5878 5877 5877 5876 5875 5874 5873 5873 5873 5873 5873 5873 5873 5872 5872 5872 5872 5872 5874 5875 5876 5876 5877 5878 5879 5880 5881 5881 5882 5883 5883
5912 5914 5915 5912 5909 5906 5903 5901 5898 5896 5893 5891 5889 5887 5885 5884 5882 5881 5879 5878 5878 5877 5876 5874 5874 5875 5875 5875 5874 5874 5874 5874 5874 5874 5874 5875 5875 5876 5877 5877 5878 5879 5880 5881 5881 5882 5883 5883 5884
5918 5918 5917 5915 5912 5909 5906 5903 5901 5898 5896 5893 5891 5889 5887 5886 5884 5882 5881 5880 5879 5878 5878 5877 5875 5876 5876 5876 5876 5876 5876 5876 5876 5876 5876 5877 5877 5878 5878 5879 5879 5880 5881 5881 5882 5883 5884 5884 5885
5922 5922 5919 5918 5915 5912 5909 5906 5903 5901 5898 5896 5894 5891 5889 5887 5885 5884 5882 5881 5880 5880 5879 5878 5878 5877 5877 5877 5877 5877 5877 5877 5877 5878 5878 5878 5879 5879 5880 5880 5880 5881 5882 5882 5883 5884 5884 5885 5885
5926 5924 5922 5920 5917 5914 5911 5908 5905 5903 5900 5898 5896 5893 5891 5888 5887 5885 5884 5883 5882 5881 5880 5880 5879 5879 5879 5879 5879 5878 5879 5879 5879 5879 5879 5880 5880 5880 5881 5881 5882 5882 5883 5883 5884 5884 5885 5885 5886
5928 5926 5924 5922 5919 5917 5913 5911 5908 5906 5903 5901 5899 5896 5893 5891 5889 5887 5886 5885 5883 5882 5882 5881 5881 5880 5880 5880 5880 5880 5880 5880 5880 5880 5881 5881 5881 5881 5882 5882 5883 5883 5884 5884 5885 5885 5886 5886 5887
5930 5928 5926 5924 5922 5919 5917 5914 5912 5909 5907 5904 5901 5898 5895 5893 5891 5889 5888 5886 5885 5884 5883 5883 5882 5881 5881 5881 5881 5881 5881 5881 5882 5882 5882 5882 5882 5883 5883 5883 5884 5884 5885 5885 5885 5886 5886 5887 5887
5931 5929 5928 5926 5924 5922 5919 5917 5915 5912 5909 5906 5903 5900 5897 5895 5893 5891 5890 5888 5887 5886 5885 5884 5883 5883 5882 5882 5882 5882 5882 5882 5883 5883 5883 5883 5883 5884 5884 5884 5885 5885 5885 5886 5886 5886 5887 5887 5887
5931 5931 5929 5928 5925 5923 5921 5918 5916 5914 5912 5909 5906 5903 5900 5898 5895 5893 5891 5890 5889 5887 5887 5885 5885 5884 5884 5883 5883 5882 5882 5883 5883 5884 5884 5884 5884 5884 5885 5885 5885 5886 5886 5886 5886 5887 5887 5888 5888
5932 5932 5931 5929 5927 5925 5923 5920 5918 5916 5914 5912 5909 5906 5903 5901 5898 5896 5893 5892 5890 5889 5888 5887 5886 5886 5885 5884 5884 5884 5884 5884 5884 5884 5884 5885 5885 5885 5885 5885 5886 5886 5886 5886 5887 5887 5887 5888 5888
5932 5933 5932 5931 5929 5928 5927 5922 5920 5918 5916 5914 5911 5908 5906 5903 5900 5898 5896 5894 5892 5891 5890 5889 5888 5887 5886 5886 5885 5885 5884 5884 5885 5885 5885 5885 5885 5885 5885 5886 5886 5886 5886 5887 5887 5887 5887 5888 5888
5933 5934 5933 5932 5930 5930 5928 5924 5921 5920 5918 5916 5913 5911 5908 5905 5903 5900 5898 5896 5894 5893 5892 5891 5889 5888 5888 5887 5886 5886 5885 5885 5885 5885 5885 5885 5885 5885 5885 5885 5886 5886 5886 5886 5886 5887 5887 5887 5888
5935 5935 5934 5933 5932 5932 5930 5927 5925 5922 5920 5918 5915 5913 5910 5907 5905 5902 5901 5899 5897 5895 5894 5892 5891 5890 5889 5888 5887 5887 5886 5886 5885 5885 5885 5885 5885 5885 5885 5885 5885 5885 5886 5886 5886 5886 5886 5886 5887
5934 5934 5934 5935 5934 5933 5932 5929 5926 5924 5922 5920 5917 5915 5912 5910 5908 5905 5903 5901 5899 5897 5896 5894 5893 5891 5890 5889 5888 5888 5887 5886 5886 5885 5885 5885 5885 5884 5884 5884 5884 5884 5885 5885 5885 5885 5885 5885 5885
5934 5934 5934 5934 5934 5933 5931 5930 5927 5925 5924 5921 5919 5916 5914 5912 5909 5907 5905 5903 5901 5899 5898 5896 5894 5893 5892 5891 5890 5889 5888 5887 5886 5886 5885 5885 5884 5884 5883 5883 5883 5883 5883 5883 5884 5884 5884 5884 5884
5934 5935 5934 5934 5933 5932 5931 5930 5927 5925 5924 5921 5920 5918 5915 5913 5911 5909 5907 5905 5903 5901 5899 5898 5896 5894 5893 5892 5891 5890 5889 5888 5887 5886 5885 5884 5883 5883 5882 5882 5882 5882 5882 5882 5882 5882 5882 5882 5882
5933 5934 5933 5933 5933 5933 5932 5930 5927 5925 5922 5922 5920 5919 5916 5914 5912 5910 5908 5906 5904 5902 5901 5899 5897 5896 5894 5893 5891 5890 5889 5888 5887 5886 5884 5884 5883 5882 5881 5881 5881 5880 5880 5880 5880 5880 5880 5879 5879
5930 5931 5931 5932 5932 5932 5932 5930 5927 5923 5922 5921 5920 5919 5917 5915 5913 5911 5909 5907 5906 5904 5902 5900 5899 5897 5895 5894 5892 5891 5889 5888 5886 5885 5884 5883 5882 5881 5880 5879 5879 5878 5878 5878 5878 5877 5877 5876 5876
5927 5928 5929 5929 5931 5931 5931 5931 5927 5923 5921 5921 5919 5919 5918 5916 5914 5912 5910 5908 5907 5905 5903 5901 5900 5898 5896 5894 5893 5891 5889 5888 5886 5885 5883 5882 5881 5880 5879 5878 5877 5876 5876 5875 5875 5874 5874 5873 5873
5924 5926 5928 5929 5929 5928 5928 5928 5926 5924 5922 5921 5919 5918 5918 5916 5914 5913 5911 5909 5908 5906 5904 5902 5901 5899 5897 5895 5893 5891 5889 5887 5886 5884 5882 5881 5880 5879 5877 5876 5875 5874 5873 5873 5872 5871 5870 5870 5869
5921 5924 5927 5927 5927 5925 5924 5924 5924 5923 5922 5920 5918 5918 5917 5916 5914 5913 5911 5910 5908 5906 5905 5903 5901 5899 5897 5895 5893 5891 5889 5887 5885 5884 5882 5880 5879 5877 5876 5874 5873 5872 5871 5870 5869 5868 5867 5866 5866
5918 5920 5924 5925 5924 5923 5922 5921 5919 5919 5919 5919 5918 5917 5916 5915 5914 5913 5911 5909 5908 5906 5905 5903 5901 5899 5897 5895 5893 5891 5889 5887 5885 5883 5881 5879 5877 5876 5874 5872 5871 5870 5868 5867 5866 5865 5864 5863 5862
5914 5917 5920 5921 5921 5921 5919 5918 5915 5916 5916 5917 5916 5915 5914 5913 5913 5911 5910 5908 5907 5906 5904 5902 5901 5899 5897 5895 5893 5891 5888 5886 5884 5882 5880 5878 5876 5874 5872 5870 5869 5867 5866 5865 5863 5862 5861 5860 5858
5911 5913 5914 5916 5917 5919 5918 5918 5913 5911 5913 5913 5913 5912 5912 5911 5911 5910 5909 5908 5906 5905 5903 5901 5900 5898 5896 5894 5892 5890 5887 5885 5883 5881 5879 5877 5874 5872 5870 5868 5866 5864 5863 5862 5860 5859 5858 5856 5855
5906 5909 5911 5913 5913 5915 5915 5917 5911 5910 5910 5910 5909 5909 5909 5909 5909 5908 5907 5906 5905 5904 5902 5900 5898 5896 5895 5893 5891 5889 5886 5884 5882 5879 5877 5875 5873 5870 5868 5865 5863 5861 5860 5858 5857 5855 5854 5852 5851